Regional Weather Roundup
Issued by NWS Jackson, KY

Home | Current Version | Previous Version | Text Only | Print | Product List | Glossary Off
Versions: 1 2 3 4 5 6 7 8 9 10 11 12 13 14 15 16 17 18 19 20 21 22 23 24 25 26 27 28 29 30 31 32 33 34 35 36 37 38 39 40 41 42 43 44 45 46 47 48 49 50

505
ASUS43 KJKL 300410
RWRJKL

EAST KENTUCKY HOURLY WEATHER ROUNDUP
NATIONAL WEATHER SERVICE JACKSON KY
1200 AM EDT SAT JUL 30 2016

NOTE: "FAIR" INDICATES FEW OR NO CLOUDS BELOW 12,000 FEET WITH
NO SIGNIFICANT WEATHER AND/OR OBSTRUCTIONS TO VISIBILITY.

* THESE REPORTS ARE NOT UNDER NWS QUALITY CONTROL AND MAY NOT
  REPORT WEATHER SUCH AS PRECIPITATION AND FOG.

KYZ079-080-083-085-087-088-110-112-115-119-120-300500
...EASTERN KENTUCKY...

CITY           SKY/WX    TMP DP  RH WIND       PRES   REMARKS
JACKSON        MOCLDY    71  69  93 CALM      30.00S
LONDON         CLEAR     71  67  87 S5        29.99F
SOMERSET*      MOCLDY    70  70 100 CALM      29.99F
MONTICELLO*    CLOUDY   N/A N/A N/A W10       30.00F
WILLIAMSBURG*  PTCLDY    70  70 100 SE6       30.00F
MIDDLESBORO*   MOCLDY    69  68  98 NW3       30.02F
HARLAN APT*      N/A     70  68  94 CALM      30.04S
PIKE CO APT*     N/A     68  68 100 CALM      30.01R
MOREHEAD APT*  MOCLDY    73  72  94 CALM      29.99S
ASHLAND*       MOCLDY    75  72  88 CALM      29.94R
$$

KYZ035-036-041-042-044-050-067-078-099-300500
...CENTRAL KENTUCKY...

CITY           SKY/WX    TMP DP  RH WIND       PRES   REMARKS
MT STERLING*   CLOUDY    72  70  94 SW6       29.98F
FLEMING/MASON* HVY RAIN  73  71  92 S5        29.98R
DANVILLE*      MOCLDY    72  70  94 SW3       29.98F
LEXINGTON      MOCLDY    73  69  87 SW8       29.95F
FRANKFORT      MOCLDY    73  69  87 S3        29.94F
LOUISVILLE     MOCLDY    76  73  91 SW8       29.93F
LEBANON*       LGT RAIN  72  72 100 CALM      29.97S
GLASGOW*       CLOUDY    73  73 100 CALM      29.95F
BOWLING GREEN  PTCLDY    76  71  85 SW5       29.95F
$$

KYZ091>093-OHZ055-061-077-WVZ005-015-034-035-042-300500
...SOUTHERN OHIO/WEST VIRGINIA...

CITY           SKY/WX    TMP DP  RH WIND       PRES   REMARKS
COVINGTON      CLOUDY    71  70  96 CALM      29.94F
COLUMBUS       LGT RAIN  75  67  76 SE7       29.94S
DAYTON         MOCLDY    69  68  96 E5        29.96F
WILMINGTON     CLOUDY    69  68  96 S3        29.95F
HUNTINGTON     MOCLDY    74  72  93 S7        29.96R
CHARLESTON     MOCLDY    74  71  91 S5        29.97S
PINEVILLE*     CLOUDY    70  67  91 MISG      30.08S FOG
BECKLEY          N/A     68  66  93 S3        30.06S
BLUEFIELD        N/A     66  65  96 SW5       30.10R FOG
LOGAN CO APT*    N/A     72  70  94 CALM      30.00S
$$

VAZ002-007-008-TNZ017-027-036-066-071-300500
...SOUTHWEST VIRGINIA/EAST TENNESSEE...

CITY           SKY/WX    TMP DP  RH WIND       PRES   REMARKS
WISE*          MOCLDY    64  64 100 SW5       30.10S
JONESVILLE*    FOG       68  68 100 CALM      30.06F VSB 1/4
ABINGDON*        N/A     69  69 100 CALM      30.07S FOG
BRISTOL        PTCLDY    70  68  93 CALM      30.04S
MORRISTOWN*    MOCLDY    72  70  94 CALM      30.03S
SEVIERVILLE*   CLEAR     72  70  94 CALM      30.01F
KNOXVILLE      PTCLDY    74  71  91 CALM      30.01F
OAK RIDGE      CLOUDY    76  71  85 S3        30.02F
CROSSVILLE     CLOUDY    72  68  87 VRB5      30.06F
NASHVILLE      CLOUDY    76  69  79 SW8       29.97F
$$

...KEY TO REMARKS...
VSB - VISIBILITY IN MILES
WCI - WIND CHILL INDEX
HX  - HEAT INDEX

$$




USA.gov is the U.S. government's official web portal to all federal, state and local government web resources and services.